AirNav   Pilot Hours Calculator
 
 1094 users online  

7MO0 Truman Medical Center East Heliport
Kansas City, Missouri, USA

GOING TO KANSAS CITY?


FAA INFORMATION EFFECTIVE 07 OCTOBER 2021

Location

FAA Identifier: 7MO0
Lat/Long: 38-58-24.8500N 094-23-35.3200W
38-58.414167N 094-23.588667W
38.9735694,-94.3931444
(estimated)
Elevation: 983 ft. / 300 m (estimated)
Variation: 05E (1990)
From city: 7 miles S of KANSAS CITY, MO
Time zone: UTC -5 (UTC -6 during Standard Time)
Zip code: 64139

Heliport Operations

Heliport use: Private use, MEDICAL USE.
Activation date: 02/1993
Control tower: no
ARTCC: KANSAS CITY CENTER
FSS: COLUMBIA FLIGHT SERVICE STATION
Attendance: UNATNDD
Wind indicator: yes
Segmented circle: no
Lights: SS-SR
Beacon: white-green-yellow (heliport)
Operates sunset to sunrise.

Heliport Communications

WX ASOS at LXT (1.3 nm SE): 124.175 (816-347-9807)
WX ASOS at MKC (13 nm NW): PHONE 816-329-2843
WX ASOS at OJC (18 nm SW): PHONE 913-780-6969

Nearby radio navigation aids

VOR radial/distance  VOR name  Freq  Var
ANXr232/14.3NAPOLEON VORTAC114.0007E
MCIr134/24.6KANSAS CITY VORTAC113.2505E

Heliport Services

Runway Information

Helipad H1

Dimensions: 35 x 35 ft. / 11 x 11 m
Surface: concrete
Runway edge lights: PERI
AND FLOOD LGTS.
Latitude: 38-58.414167N
Longitude: 094-23.588667W
Elevation: 983.0 ft.
Traffic pattern: leftleft

Heliport Ownership and Management from official FAA records

Ownership: Privately-owned
Owner: TRUMAN MEDICAL CENTER EAST
7900 LEE'S SUMMIT ROAD
KANSAS CITY, MO 64139
Phone 816-588-8670
Manager: DIRECTOR OF FACILITIES
7900 LEE'S SUMMIT ROAD
KANSAS CITY, MO 64139
Phone 816-588-8670
EXT 1292.

Additional Remarks

A52-H1 40 FT BLDG 90 FT W.
OWNER DESIRES ARPT NOT BE CHARTED.
FOR CD CTC KANSAS CITY APCH AT 816-329-2710.

Instrument Procedures

There are no published instrument procedures at 7MO0.

Some nearby airports with instrument procedures:

KLXT - Lee's Summit Municipal Airport (1 nm SE)
3GV - East Kansas City Airport (9 nm E)
KMKC - Charles B Wheeler Downtown Airport (13 nm NW)
KOJC - Johnson County Executive Airport (18 nm SW)
KGPH - Midwest National Air Center Airport (22 nm N)
 
Loc | Ops | Rwys | IFR | FBO | Links
Com | Nav | Svcs | Stats | Notes
Area around 7MO0 (Truman Medical Center East Heliport)
 
Road maps at: MapQuest Bing Google
 
Aerial photo
No photo
 
Sectional chart

 
Airport distance calculator
Flying to Truman Medical Center East Heliport? Find the distance to fly.

From to 7MO0

Sunrise and sunset
Times for 19-Oct-2021
 Local
(UTC-5)
 Zulu
(UTC)
Morning civil twilight07:0512:05
Sunrise07:3212:32
Sunset18:3323:33
Evening civil twilight19:0000:00

Current date and time
Zulu (UTC)  20-Oct-2021 00:40:37
Local (UTC-5)  19-Oct-2021 19:40:37
 
METAR
KLXT 192353Z AUTO 15009KT 10SM CLR 21/12 A2993 RMK AO2 SLP132 T02060117 10233 20206 56005
KMKC 
13nm NW 
192354Z 14010KT 10SM CLR 22/11 A2991 RMK AO2 SLP124 T02220111 10244 20217 55003
KOJC 
18nm SW 
192353Z 17012KT 10SM CLR 21/12 A2992 RMK AO2 SLP125 T02060117 10239 20206 55003
TAF
KMKC 
13nm NW 
191728Z 1918/2018 18011G21KT P6SM FEW250 FM200000 17009KT P6SM SKC FM200300 18009KT P6SM FEW250 WS015/20040KT FM201300 20008KT P6SM SCT150 FM201500 23012G19KT P6SM SCT120
NOTAMs
Click for the latest NOTAMs
NOTAMs are issued by the DoD/FAA and will open in a separate window not controlled by AirNav.

 

 
 

Would you like to see your business listed on this page?

 If your business provides an interesting product or service to pilots, flight crews, aircraft, or users of the Truman Medical Center East Heliport, you should consider listing it here.  To start the listing process, click on the button below
 
Add a business
 

Other Pages about Truman Medical Center East Heliport

Update a link
 
Copyright © AirNav, LLC. All rights reserved. Privacy Policy  Contact